TimePST,TemperatureF,Dew PointF,Humidity,Sea Level PressureIn,VisibilityMPH,Wind Direction,Wind SpeedMPH,Gust SpeedMPH,PrecipitationIn,Events,Conditions,WindDirDegrees,DateUTC
12:53 AM,39.0,36.0,89,29.77,8.0,ENE,3.5,-,0.03,Rain,Light Rain,60,2013-03-06 08:53:00
1:53 AM,39.0,37.0,93,29.74,4.0,NNE,4.6,-,0.08,Rain,Rain,30,2013-03-06 09:53:00
2:53 AM,37.9,37.0,97,29.71,8.0,SE,4.6,-,0.01,Rain,Light Rain,130,2013-03-06 10:53:00
3:53 AM,37.9,36.0,93,29.68,10.0,East,8.1,-,0.00,Rain,Light Rain,80,2013-03-06 11:53:00
4:53 AM,37.9,36.0,93,29.66,7.0,ENE,9.2,-,0.03,Rain,Light Rain,60,2013-03-06 12:53:00
5:53 AM,37.9,36.0,93,29.60,10.0,ENE,9.2,17.3,0.01,,Mostly Cloudy,70,2013-03-06 13:53:00
6:53 AM,37.9,35.1,89,29.60,9.0,East,11.5,-,N/A,,Scattered Clouds,80,2013-03-06 14:53:00
7:53 AM,37.9,36.0,93,29.60,10.0,NE,10.4,-,N/A,,Mostly Cloudy,50,2013-03-06 15:53:00
8:53 AM,39.9,37.0,89,29.60,10.0,NW,4.6,-,N/A,,Overcast,320,2013-03-06 16:53:00
9:53 AM,42.1,37.0,82,29.59,10.0,WNW,3.5,-,N/A,,Overcast,290,2013-03-06 17:53:00
10:53 AM,42.1,37.9,85,29.60,10.0,NW,3.5,-,0.01,Rain,Light Rain,310,2013-03-06 18:53:00
11:22 AM,42.8,37.4,81,29.61,10.0,West,6.9,-,0.00,,Overcast,260,2013-03-06 19:22:00
11:53 AM,43.0,37.9,82,29.63,10.0,Calm,Calm,-,0.00,,Overcast,0,2013-03-06 19:53:00
12:53 PM,45.0,39.0,80,29.66,10.0,SW,8.1,-,N/A,,Overcast,230,2013-03-06 20:53:00
1:15 PM,44.6,37.4,76,29.66,10.0,SW,5.8,-,0.00,Rain,Light Rain,230,2013-03-06 21:15:00
1:53 PM,45.0,39.0,80,29.67,10.0,SSW,5.8,-,0.00,,Partly Cloudy,200,2013-03-06 21:53:00
2:44 PM,46.4,39.2,76,29.67,10.0,West,13.8,18.4,0.00,Rain,Light Rain,260,2013-03-06 22:44:00
2:53 PM,48.0,39.9,74,29.69,10.0,West,12.7,-,0.00,Rain,Light Rain,260,2013-03-06 22:53:00
3:13 PM,46.4,39.2,76,29.69,10.0,WSW,15.0,24.2,0.00,,Overcast,250,2013-03-06 23:13:00
3:53 PM,43.0,37.0,80,29.73,10.0,West,11.5,-,0.00,Rain,Light Rain,260,2013-03-06 23:53:00
4:53 PM,42.1,37.9,85,29.77,9.0,WSW,11.5,20.7,0.02,Rain,Light Rain,240,2013-03-07 00:53:00
5:53 PM,42.1,37.9,85,29.79,10.0,WSW,10.4,-,0.05,Rain,Light Rain,240,2013-03-07 01:53:00
6:53 PM,42.1,37.0,82,29.82,10.0,WSW,9.2,-,0.00,Rain,Light Rain,240,2013-03-07 02:53:00
7:53 PM,42.1,37.9,85,29.85,10.0,SW,8.1,-,0.00,Rain,Light Rain,220,2013-03-07 03:53:00
8:53 PM,41.0,37.9,89,29.87,10.0,SSW,5.8,-,0.00,,Overcast,210,2013-03-07 04:53:00
9:53 PM,42.1,36.0,79,29.90,10.0,SSW,5.8,-,0.00,,Overcast,200,2013-03-07 05:53:00
10:53 PM,41.0,36.0,82,29.92,10.0,South,6.9,-,N/A,,Overcast,190,2013-03-07 06:53:00
11:53 PM,39.9,35.1,83,29.93,10.0,SSW,8.1,-,N/A,,Overcast,200,2013-03-07 07:53:00